When you browse on this site, cookies collect data to enhance your experience and personalize the content and advertising you see.
Visit our Privacy Policy to learn more. By continuing to use the site, you agree to this use of cookies and data.
  • în România
  • Lista ţărilor
  • Pe 7 zile
  • Temperatura apei
  • Hartă satelitară
  • Meteo pe hartă
  • Widget-uri
  • user-avatar
    Intrare

    Meteo pe oră la Emenovo

    Astăzi, 19 Martie, Marţi

    Timp Temperatura Precipitaţii Vânt Presiune Umiditate
    00:00 +1°C° 0.3 mm 4 m/s 745 mmHg 91%
    01:00 +2°C° 0.3 mm 3 m/s 745 mmHg 93%
    02:00 +2°C° 0 mm 3 m/s 745 mmHg 94%
    03:00 +2°C° 0.4 mm 3 m/s 745 mmHg 95%
    04:00 +2°C° 0.4 mm 2 m/s 745 mmHg 96%
    05:00 +2°C° 0.4 mm 2 m/s 745 mmHg 97%
    06:00 +2°C° 0.2 mm 2 m/s 745 mmHg 97%
    07:00 +3°C° 0.2 mm 2 m/s 745 mmHg 97%
    08:00 +3°C° 0 mm 2 m/s 745 mmHg 95%
    09:00 +4°C° 0.1 mm 2 m/s 746 mmHg 92%
    10:00 +5°C° 0.1 mm 2 m/s 746 mmHg 89%
    11:00 +5°C° 0.1 mm 2 m/s 746 mmHg 86%
    12:00 +6°C° 0 mm 2 m/s 746 mmHg 84%
    13:00 +5°C° 0 mm 3 m/s 746 mmHg 81%
    14:00 +7°C° 0 mm 3 m/s 747 mmHg 80%
    15:00 +5°C° 0 mm 3 m/s 747 mmHg 83%
    16:00 +5°C° 0 mm 2 m/s 747 mmHg 86%
    17:00 +4°C° 0 mm 2 m/s 747 mmHg 88%
    18:00 +3°C° 0 mm 2 m/s 747 mmHg 89%
    19:00 +1°C° 0 mm 3 m/s 748 mmHg 89%
    20:00 +1°C° 0 mm 3 m/s 748 mmHg 90%
    21:00 0°C° 0 mm 3 m/s 748 mmHg 90%
    22:00 +1°C° 0 mm 2 m/s 748 mmHg 90%
    23:00 +1°C° 0 mm 2 m/s 748 mmHg 91%

    Mâine, 20 Martie, Miercuri

    Timp Temperatura Precipitaţii Vânt Presiune Umiditate
    00:00 +1°C° 0 mm 2 m/s 748 mmHg 91%
    01:00 -1°C° 0 mm 2 m/s 748 mmHg 91%
    02:00 -1°C° 0 mm 3 m/s 749 mmHg 91%
    03:00 -1°C° 0 mm 3 m/s 749 mmHg 91%
    04:00 -2°C° 0 mm 3 m/s 749 mmHg 92%
    05:00 -2°C° 0 mm 3 m/s 749 mmHg 93%
    06:00 -1°C° 0 mm 3 m/s 749 mmHg 90%
    07:00 -1°C° 0 mm 3 m/s 750 mmHg 88%
    08:00 -1°C° 0 mm 4 m/s 750 mmHg 86%
    09:00 0°C° 0 mm 4 m/s 750 mmHg 81%
    10:00 0°C° 0 mm 4 m/s 750 mmHg 77%
    11:00 +1°C° 0 mm 4 m/s 751 mmHg 72%
    12:00 +3°C° 0.1 mm 4 m/s 751 mmHg 72%
    13:00 +3°C° 0.1 mm 4 m/s 751 mmHg 72%
    14:00 +3°C° 0.1 mm 4 m/s 751 mmHg 71%
    15:00 +2°C° 0 mm 3 m/s 751 mmHg 74%
    16:00 +2°C° 0 mm 3 m/s 751 mmHg 77%
    17:00 +1°C° 0 mm 3 m/s 751 mmHg 80%
    18:00 0°C° 0 mm 3 m/s 751 mmHg 83%
    19:00 0°C° 0 mm 3 m/s 751 mmHg 85%
    20:00 -1°C° 0 mm 2 m/s 751 mmHg 87%
    21:00 -1°C° 0 mm 3 m/s 751 mmHg 87%
    22:00 -2°C° 0 mm 3 m/s 751 mmHg 87%
    23:00 -2°C° 0 mm 3 m/s 750 mmHg 86%

    Poimâine, 21 Martie, Joi

    Timp Temperatura Precipitaţii Vânt Presiune Umiditate
    00:00 -2°C° 0 mm 3 m/s 750 mmHg 85%
    01:00 -2°C° 0 mm 3 m/s 749 mmHg 84%
    02:00 -2°C° 0 mm 4 m/s 748 mmHg 83%
    03:00 -2°C° 0.4 mm 4 m/s 748 mmHg 85%
    04:00 -2°C° 0.4 mm 4 m/s 747 mmHg 87%
    05:00 -2°C° 0.4 mm 4 m/s 746 mmHg 90%
    06:00 -1°C° 0.3 mm 4 m/s 746 mmHg 88%
    07:00 0°C° 0.3 mm 4 m/s 746 mmHg 86%
    08:00 0°C° 0.3 mm 4 m/s 747 mmHg 84%
    09:00 0°C° 0.1 mm 4 m/s 747 mmHg 81%
    10:00 +1°C° 0.1 mm 5 m/s 747 mmHg 77%
    11:00 +1°C° 0.1 mm 5 m/s 748 mmHg 74%
    12:00 +1°C° 0 mm 5 m/s 748 mmHg 74%
    13:00 +1°C° 0 mm 5 m/s 748 mmHg 74%
    14:00 +2°C° 0 mm 5 m/s 748 mmHg 74%
    15:00 +1°C° 0 mm 4 m/s 748 mmHg 78%
    16:00 +2°C° 0 mm 3 m/s 749 mmHg 82%
    17:00 +2°C° 0 mm 2 m/s 749 mmHg 85%
    18:00 +2°C° 0 mm 2 m/s 749 mmHg 87%
    19:00 +1°C° 0 mm 2 m/s 749 mmHg 89%
    20:00 +2°C° 0 mm 1 m/s 749 mmHg 91%
    21:00 +1°C° 0 mm 1 m/s 749 mmHg 91%
    22:00 +1°C° 0 mm 1 m/s 749 mmHg 92%
    23:00 -2°C° 0 mm 2 m/s 748 mmHg 93%

    22 Martie, Vineri

    Timp Temperatura Precipitaţii Vânt Presiune Umiditate
    00:00 -2°C° 0 mm 2 m/s 748 mmHg 92%
    01:00 -1°C° 0 mm 2 m/s 747 mmHg 91%
    02:00 -1°C° 0 mm 2 m/s 747 mmHg 90%
    03:00 0°C° 0.1 mm 3 m/s 746 mmHg 90%
    04:00 0°C° 0.1 mm 3 m/s 745 mmHg 91%
    05:00 0°C° 0.1 mm 4 m/s 745 mmHg 91%
    06:00 +1°C° 0.1 mm 5 m/s 744 mmHg 88%
    07:00 +1°C° 0.1 mm 5 m/s 744 mmHg 86%
    08:00 +2°C° 0.1 mm 6 m/s 744 mmHg 83%
    09:00 +2°C° 0 mm 7 m/s 744 mmHg 74%
    10:00 +3°C° 0 mm 7 m/s 744 mmHg 66%
    11:00 +3°C° 0 mm 7 m/s 744 mmHg 57%
    12:00 +3°C° 0 mm 7 m/s 745 mmHg 57%
    13:00 +2°C° 0 mm 7 m/s 745 mmHg 57%
    14:00 +2°C° 0 mm 7 m/s 745 mmHg 58%
    15:00 0°C° 0 mm 7 m/s 746 mmHg 62%
    16:00 -1°C° 0 mm 6 m/s 746 mmHg 66%
    17:00 -1°C° 0 mm 6 m/s 746 mmHg 70%
    18:00 -2°C° 0 mm 6 m/s 747 mmHg 72%
    19:00 -2°C° 0 mm 6 m/s 748 mmHg 75%
    20:00 -1°C° 0 mm 5 m/s 748 mmHg 77%
    21:00 -1°C° 0 mm 5 m/s 748 mmHg 80%
    22:00 -2°C° 0 mm 5 m/s 749 mmHg 82%
    23:00 -2°C° 0 mm 4 m/s 749 mmHg 85%

    23 Martie, Sâmbătă

    Timp Temperatura Precipitaţii Vânt Presiune Umiditate
    00:00 -2°C° 0 mm 4 m/s 750 mmHg 84%
    01:00 -1°C° 0 mm 3 m/s 750 mmHg 84%
    02:00 -1°C° 0 mm 3 m/s 751 mmHg 84%
    03:00 -1°C° 0 mm 3 m/s 751 mmHg 87%
    04:00 -2°C° 0 mm 2 m/s 751 mmHg 90%
    05:00 -3°C° 0 mm 2 m/s 751 mmHg 93%
    06:00 -2°C° 0 mm 2 m/s 751 mmHg 90%
    07:00 -2°C° 0 mm 2 m/s 751 mmHg 86%
    08:00 -1°C° 0 mm 2 m/s 752 mmHg 83%
    09:00 +1°C° 0 mm 2 m/s 751 mmHg 76%
    10:00 +3°C° 0 mm 2 m/s 751 mmHg 70%
    11:00 +4°C° 0 mm 2 m/s 751 mmHg 64%
    12:00 +5°C° 0 mm 2 m/s 750 mmHg 64%
    13:00 +4°C° 0 mm 3 m/s 750 mmHg 63%
    14:00 +5°C° 0 mm 3 m/s 749 mmHg 62%
    15:00 +5°C° 0 mm 3 m/s 748 mmHg 66%
    16:00 +4°C° 0 mm 3 m/s 748 mmHg 69%
    17:00 +4°C° 0 mm 3 m/s 747 mmHg 72%
    18:00 +4°C° 0 mm 3 m/s 747 mmHg 78%
    19:00 +3°C° 0 mm 4 m/s 746 mmHg 83%
    20:00 +3°C° 0 mm 4 m/s 746 mmHg 89%
    21:00 +4°C° 0.1 mm 4 m/s 746 mmHg 89%
    22:00 +4°C° 0.1 mm 4 m/s 745 mmHg 90%
    23:00 +4°C° 0.1 mm 4 m/s 745 mmHg 91%

    24 Martie, Duminică

    Timp Temperatura Precipitaţii Vânt Presiune Umiditate
    00:00 +4°C° 0.1 mm 4 m/s 745 mmHg 87%
    01:00 +3°C° 0.1 mm 5 m/s 746 mmHg 83%
    02:00 +2°C° 0.1 mm 5 m/s 746 mmHg 79%
    03:00 +1°C° 0 mm 5 m/s 747 mmHg 78%
    04:00 -1°C° 0 mm 4 m/s 747 mmHg 78%
    05:00 -2°C° 0 mm 4 m/s 748 mmHg 77%
    06:00 -2°C° 0 mm 4 m/s 748 mmHg 72%
    07:00 -1°C° 0 mm 5 m/s 749 mmHg 68%
    08:00 -1°C° 0 mm 5 m/s 749 mmHg 64%
    09:00 0°C° 0 mm 5 m/s 749 mmHg 60%
    10:00 +1°C° 0 mm 5 m/s 750 mmHg 57%
    11:00 +2°C° 0 mm 5 m/s 750 mmHg 54%
    12:00 +2°C° 0 mm 5 m/s 750 mmHg 52%
    13:00 +3°C° 0 mm 5 m/s 750 mmHg 49%
    14:00 +3°C° 0 mm 5 m/s 750 mmHg 47%
    15:00 +3°C° 0 mm 4 m/s 750 mmHg 50%
    16:00 +3°C° 0 mm 3 m/s 750 mmHg 53%
    17:00 +3°C° 0 mm 2 m/s 750 mmHg 57%
    18:00 +2°C° 0 mm 2 m/s 750 mmHg 62%
    19:00 +2°C° 0 mm 1 m/s 750 mmHg 67%
    20:00 -1°C° 0 mm 0 m/s 750 mmHg 73%
    21:00 0°C° 0 mm 1 m/s 749 mmHg 72%
    22:00 0°C° 0 mm 1 m/s 749 mmHg 72%
    23:00 0°C° 0 mm 1 m/s 749 mmHg 72%
    Arată mai mult